Location: Bergnerzell
(49.1816°N, 10.2565°E)
Time: 14:13:58
(UTC+00:00)

IDEFIX/ARIANE 42P - Pass Details

Date: 21 August 2024
Orbit: 782 x 799 km, 98.5° (Epoch: 15 September)

Event Time Altitude Azimuth Distance (km) Brightness Sun altitude
Rises 02:16:03 0° 7° (N) 3,288 6.6 -17.9°
Reaches altitude 10° 02:18:36 10° 357° (N) 2,357 5.6 -17.6°
Maximum altitude 02:23:05 30° 298° (WNW) 1,382 3.6 -17.0°
Enters shadow 02:25:08 23° 259° (W) 1,639 3.7 -16.8°
